Terminal Aerodrome Forecast
Issued by NWS Pueblo, CO

Home | Current Version | Previous Version | Text Only | Print | Product List | Glossary On
Versions: 1 2 3 4 5 6 7 8 9 10 11 12 13 14 15 16 17 18 19 20 21 22 23 24 25 26 27 28 29 30 31 32 33 34 35 36 37 38 39 40 41 42 43 44 45 46 47 48 49 50
000
FTUS45 KPUB 062339
TAFPUB
TAF
KPUB 062339Z 0700/0724 06009KT P6SM VCSH SCT030 OVC050
      TEMPO 0700/0703 -SHRA BKN030
     FM070800 VRB05KT P6SM VCSH SCT020 BKN035
     FM071700 15009KT P6SM VCSH SCT040 BKN070=

USA.gov is the U.S. government's official web portal to all federal, state and local government web resources and services.